Date,TemperatureHighF,TemperatureAvgF,TemperatureLowF,DewpointHighF,DewpointAvgF,DewpointLowF,HumidityHigh,HumidityAvg,HumidityLow,PressureMaxIn,PressureMinIn,WindSpeedMaxMPH,WindSpeedAvgMPH,GustSpeedMaxMPH,PrecipitationSumIn
2013-3-1,45.6,41.0,36.3,34.9,32.4,30.3,80,72,57,29.83,29.69,10,5,13,0.00
2013-3-2,41.5,36.9,32.9,31.4,27.7,24.4,82,70,53,29.85,29.77,10,6,16,0.00
2013-3-3,39.6,34.6,30.1,25.9,23.1,19.4,78,63,49,29.83,29.75,11,7,22,0.00
2013-3-6,42.8,40.2,36.4,41.2,38.5,34.6,100,93,91,29.74,29.43,42,34,65,2.69
2013-3-12,58.9,52.2,45.2,57.8,49.7,38.4,97,91,76,29.90,29.73,17,9,42,0.51
2013-3-13,51.8,44.2,37.5,38.4,32.3,26.4,82,65,38,29.99,29.87,14,6,17,0.03
2013-3-14,44.2,38.3,32.5,26.0,20.3,16.3,65,49,33,30.07,29.97,16,9,29,0.00
2013-3-15,40.2,34.4,31.2,24.0,20.6,18.3,65,57,45,30.09,30.05,6,3,10,0.00
2013-3-18,50.6,46.9,44.8,49.7,45.8,43.7,97,96,95,29.96,29.85,26,14,28,0.23
2013-3-19,50.8,45.9,43.3,49.9,42.8,37.2,97,89,73,29.88,29.73,10,3,14,0.09
2013-3-20,52.1,44.6,34.2,36.9,22.4,16.1,78,45,24,29.99,29.82,14,7,25,0.00
2013-3-21,38.1,34.4,31.0,30.9,24.4,14.9,93,68,47,29.86,29.69,12,7,16,0.05
2013-3-22,44.9,36.5,29.2,23.8,19.6,15.2,63,51,38,30.00,29.85,12,7,20,0.00
2013-3-23,50.4,40.4,30.7,30.5,24.6,21.6,70,54,38,30.02,29.91,14,6,17,0.00
2013-3-24,41.1,38.1,33.8,34.9,27.4,23.6,92,66,51,30.00,29.63,24,5,29,0.05
2013-3-25,40.7,37.2,35.2,38.8,35.5,33.6,95,93,86,29.68,29.42,20,12,27,0.78
2013-3-26,50.5,41.9,35.1,38.3,33.7,30.3,95,75,47,29.94,29.66,8,5,11,0.00
2013-3-27,52.1,44.8,38.7,34.2,31.5,27.1,77,61,39,30.06,29.93,15,7,26,0.00
2013-3-28,49.0,43.3,37.1,34.6,31.0,28.3,78,62,45,30.17,30.04,11,6,20,0.00
2013-3-29,49.7,44.4,39.1,37.7,32.8,28.4,72,64,45,30.22,30.13,10,5,16,0.00
2013-3-30,51.1,45.9,40.0,41.2,35.7,31.0,88,68,50,30.23,30.14,9,4,11,0.00
2013-3-31,53.9,48.2,43.4,52.3,44.8,38.6,95,88,78,30.18,29.74,23,6,29,0.37